User: anonymous   Login
Location: Newark
(55.2831°N, 38.7366°E)
Time: 17:03:31
(UTC+00:00)
Language:

AO-91 - Orbit

View from above orbital plane
View from above orbital plane
View from above satellite
View from above satellite

Ground track
Ground track

The orbit data is extracted from the following two-line orbital elements,

1 43017U 17073E   19264.54378312  .00000195  00000-0  21034-4 0  9997
2 43017  97.7201 182.1912 0257196 209.2722 149.3873 14.78629671 99274
Epoch (UTC): 21 September 2019 13:03:02
Eccentricity: 0.0257196
inclination: 97.7201°
perigee height: 453 km
apogee height: 814 km
right ascension of ascending node: 182.1912°
argument of perigee: 209.2722°
revolutions per day: 14.78629671
mean anomaly at epoch: 149.3873°
orbit number at epoch: 9927

The dashed part of the orbit path shows where the satellite is in the earth's shadow,  

DLR